This demonstration page uses our WeatherBlox Daily Observations layout. Learn more.

Left ArrowRight Arrow

Hourly Observations for June 27, 2018

Temp ( °F °C ) Dew Point ( °F °C ) Humidity (%) Winds ( mph kmh ) Pressure ( in mb ) Visibility ( mi km ) Precip ( " mm )
12:53 am 00:53 Clear 49 9.4 40 4.4 71 71 WSW 7 11 29.91 1013 10 16 0.00 0.00
1:53 am 01:53 Clear 49 9.4 40 4.4 71 71 S 7 11 29.92 1013 10 16 0.00 0.00
2:53 am 02:53 Clear 47 8.3 39 3.9 74 74 SSW 8 13 29.93 1014 10 16 0.00 0.00
3:53 am 03:53 Clear 49 9.4 38 3.3 66 66 SSW 10 17 29.92 1013 10 16 0.00 0.00
4:53 am 04:53 Clear 46 7.8 38 3.3 73 73 SW 9 15 29.93 1014 10 16 0.00 0.00
5:53 am 05:53 Sunny 47 8.3 38 3.3 71 71 WSW 5 7 29.93 1014 10 16 0.00 0.00
6:53 am 06:53 Sunny 54 12.2 39 3.9 57 57 SW 8 13 29.93 1013 10 16 0.00 0.00
7:53 am 07:53 Sunny 59 15 39 3.9 48 48 SW 14 22 29.92 1013 10 16 0.00 0.00
8:53 am 08:53 Sunny 62 16.7 39 3.9 43 43 SW 14 22 29.92 1013 10 16 0.00 0.00
9:53 am 09:53 Sunny 65 18.3 40 4.4 40 40 SW 16 26 29.92 1013 10 16 0.00 0.00
10:53 am 10:53 Sunny 69 20.6 40 4.4 35 35 SW 15 24 29.90 1013 10 16 0.00 0.00
11:53 am 11:53 Sunny 71 21.7 35 1.7 27 27 SW 16 26 29.88 1012 10 16 0.00 0.00
12:53 pm 12:53 Sunny 72 22.2 35 1.7 26 26 WSW 16 26 29.87 1012 10 16 0.00 0.00
1:53 pm 13:53 Sunny 71 21.7 33 0.6 25 25 WSW 12 19 29.85 1011 10 16 0.00 0.00
2:53 pm 14:53 Sunny 72 22.2 35 1.7 26 26 WSW 17 28 29.84 1010 10 16 0.00 0.00
3:53 pm 15:53 Sunny 75 23.9 31 -0.6 20 20 WSW 12 19 29.82 1010 10 16 0.00 0.00
4:53 pm 16:53 Sunny 77 25 32 0 19 19 SW 12 19 29.80 1009 10 16 0.00 0.00
5:53 pm 17:53 Sunny 77 25 34 1.1 21 21 VRB 6 9 29.78 1009 10 16 0.00 0.00
6:53 pm 18:53 Sunny 79 26.1 32 0 18 18 WSW 12 19 29.75 1008 10 16 0.00 0.00
7:53 pm 19:53 Sunny 77 25 30 -1.1 18 18 WNW 10 17 29.75 1008 10 16 0.00 0.00
8:53 pm 20:53 Sunny 70 21.1 38 3.3 31 31 NNW 7 11 29.76 1008 10 16 0.00 0.00
9:53 pm 21:53 Clear 65 18.3 43 6.1 45 45 E 3 6 29.78 1008 10 16 0.00 0.00
10:53 pm 22:53 Clear 55 12.8 45 7.2 69 69 SSE 6 9 29.79 1009 10 16 0.00 0.00
11:53 pm 23:53 Clear 56 13.3 46 7.8 70 70 SSE 3 6 29.78 1009 10 16 0.00 0.00

Powered by AerisWeather